Radiation Dose at Monitoring Post of Fukushima Daini Nuclear Power Station
Date,Time,MP-1(microSv/h),MP-2(microSv/h),MP-3(microSv/h),MP-4(microSv/h),MP-5(microSv/h),MP-6(microSv/h),MP-7(microSv/h),Wind Direction,Wind Velocity(m/s),Rain
2016/02/26,00:00,0.459,0.266,0.481,0.432,0.397,0.218,0.189,south-southwest,7.9,No
2016/02/26,00:10,0.459,0.266,0.480,0.431,0.397,0.217,0.189,south-southwest,7.0,No
2016/02/26,00:20,0.458,0.265,0.480,0.431,0.397,0.218,0.190,south-southwest,7.5,No
2016/02/26,00:30,0.460,0.265,0.479,0.432,0.396,0.217,0.190,south-southwest,7.5,No
2016/02/26,00:40,0.460,0.265,0.480,0.431,0.396,0.219,0.190,southwest,6.8,No
2016/02/26,00:50,0.459,0.266,0.482,0.430,0.397,0.217,0.190,southwest,7.1,No
2016/02/26,01:00,0.460,0.265,0.478,0.429,0.395,0.218,0.189,southwest,6.8,No
2016/02/26,01:10,0.460,0.265,0.479,0.430,0.395,0.217,0.190,southwest,7.1,No
2016/02/26,01:20,0.458,0.265,0.480,0.433,0.397,0.218,0.191,southwest,7.9,No
2016/02/26,01:30,0.460,0.265,0.481,0.429,0.398,0.218,0.189,southwest,7.8,No
2016/02/26,01:40,0.458,0.265,0.481,0.429,0.396,0.217,0.190,west-southwest,7.4,No
2016/02/26,01:50,0.460,0.266,0.480,0.431,0.396,0.217,0.189,southwest,7.3,No
2016/02/26,02:00,0.459,0.266,0.479,0.432,0.396,0.218,0.189,southwest,7.3,No
2016/02/26,02:10,0.461,0.266,0.479,0.430,0.397,0.218,0.190,southwest,6.0,No
2016/02/26,02:20,0.460,0.264,0.481,0.431,0.397,0.218,0.190,southwest,6.6,No
2016/02/26,02:30,0.459,0.265,0.480,0.430,0.396,0.217,0.190,southwest,6.0,No
2016/02/26,02:40,0.459,0.266,0.479,0.431,0.396,0.217,0.189,southwest,6.2,No
2016/02/26,02:50,0.461,0.266,0.479,0.432,0.398,0.218,0.190,southwest,4.7,No
2016/02/26,03:00,0.459,0.265,0.482,0.430,0.398,0.218,0.190,southwest,6.2,No
2016/02/26,03:10,0.459,0.266,0.480,0.430,0.397,0.218,0.190,west-southwest,5.0,No
2016/02/26,03:20,0.460,0.265,0.481,0.431,0.397,0.217,0.190,west-southwest,3.9,No
2016/02/26,03:30,0.459,0.267,0.480,0.431,0.396,0.217,0.189,west-southwest,4.9,No
2016/02/26,03:40,0.460,0.267,0.481,0.432,0.397,0.218,0.191,west-southwest,6.4,No
2016/02/26,03:50,0.459,0.266,0.481,0.429,0.398,0.218,0.188,west-southwest,6.7,No
2016/02/26,04:00,0.459,0.266,0.480,0.431,0.397,0.218,0.190,west-southwest,9.0,No
2016/02/26,04:10,0.459,0.266,0.479,0.430,0.397,0.218,0.190,west,9.6,No
2016/02/26,04:20,0.461,0.266,0.481,0.430,0.398,0.217,0.190,west-southwest,9.8,No
2016/02/26,04:30,0.461,0.267,0.481,0.431,0.398,0.217,0.189,west,7.6,No
2016/02/26,04:40,0.458,0.266,0.481,0.430,0.398,0.217,0.189,west,8.1,No
2016/02/26,04:50,0.458,0.266,0.478,0.430,0.398,0.218,0.189,west,6.2,No
2016/02/26,05:00,0.459,0.266,0.481,0.431,0.396,0.217,0.188,southwest,2.6,No
2016/02/26,05:10,0.457,0.266,0.480,0.431,0.396,0.218,0.189,north,0.6,No
2016/02/26,05:20,0.459,0.266,0.481,0.430,0.397,0.217,0.189,northwest,2.0,No
2016/02/26,05:30,0.460,0.265,0.480,0.430,0.398,0.217,0.189,west-northwest,1.7,No
2016/02/26,05:40,0.459,0.266,0.482,0.431,0.397,0.217,0.190,southwest,1.8,No
2016/02/26,05:50,0.459,0.266,0.480,0.431,0.396,0.217,0.190,south-southwest,0.9,No
2016/02/26,06:00,0.460,0.266,0.481,0.430,0.395,0.217,0.189,-,CALM,No
2016/02/26,06:10,0.460,0.266,0.480,0.430,0.397,0.219,0.190,northwest,0.8,No
2016/02/26,06:20,0.459,0.265,0.480,0.430,0.398,0.217,0.190,north-northwest,3.0,No
2016/02/26,06:30,0.460,0.265,0.479,0.431,0.398,0.218,0.190,north-northwest,2.9,No
2016/02/26,06:40,0.461,0.266,0.481,0.431,0.397,0.218,0.191,north-northwest,4.1,No
2016/02/26,06:50,0.458,0.267,0.481,0.429,0.397,0.218,0.190,north-northwest,4.6,No
2016/02/26,07:00,0.460,0.266,0.479,0.431,0.396,0.217,0.191,north-northwest,5.1,No
2016/02/26,07:10,0.459,0.265,0.480,0.429,0.395,0.218,0.189,north-northwest,4.6,No
2016/02/26,07:20,0.460,0.266,0.478,0.430,0.397,0.217,0.190,north-northwest,3.6,No
2016/02/26,07:30,0.460,0.266,0.480,0.431,0.397,0.218,0.191,north-northwest,3.6,No
2016/02/26,07:40,0.460,0.267,0.481,0.429,0.396,0.219,0.189,north-northwest,2.3,No
2016/02/26,07:50,0.460,0.267,0.479,0.428,0.395,0.216,0.190,north-northwest,0.7,No
2016/02/26,08:00,0.460,0.266,0.479,0.430,0.396,0.218,0.189,-,CALM,No
2016/02/26,08:10,0.460,0.265,0.482,0.431,0.397,0.218,0.190,east-southeast,2.2,No
2016/02/26,08:20,0.460,0.265,0.481,0.430,0.396,0.218,0.189,southeast,2.0,No
2016/02/26,08:30,0.458,0.266,0.479,0.428,0.395,0.217,0.189,east-southeast,0.8,No
2016/02/26,08:40,0.461,0.266,0.479,0.430,0.395,0.217,0.190,east,3.1,No
2016/02/26,08:50,0.462,0.264,0.483,0.429,0.397,0.216,0.189,east-northeast,3.5,No
2016/02/26,09:00,0.458,0.265,0.481,0.429,0.399,0.217,0.189,east,2.5,No
2016/02/26,09:10,0.461,0.265,0.479,0.429,0.396,0.216,0.189,east,2.8,No
2016/02/26,09:20,0.460,0.265,0.479,0.427,0.396,0.216,0.190,east-northeast,3.1,No
2016/02/26,09:30,0.459,0.265,0.482,0.432,0.398,0.218,0.191,east-northeast,2.2,No
2016/02/26,09:40,0.460,0.267,0.479,0.427,0.396,0.218,0.190,northeast,2.7,No
2016/02/26,09:50,0.460,0.265,0.480,0.429,0.395,0.218,0.189,north,2.0,No
2016/02/26,10:00,0.458,0.264,0.481,0.430,0.398,0.217,0.190,north-northeast,1.9,No
2016/02/26,10:10,0.456,0.266,0.481,0.428,0.396,0.217,0.190,northwest,2.5,No
2016/02/26,10:20,0.459,0.264,0.479,0.430,0.398,0.217,0.190,north,1.8,No
2016/02/26,10:30,0.458,0.267,0.480,0.430,0.399,0.217,0.189,northwest,4.7,No
2016/02/26,10:40,0.459,0.267,0.482,0.430,0.398,0.219,0.191,west-northwest,6.7,No
2016/02/26,10:50,0.462,0.265,0.480,0.432,0.397,0.218,0.191,northwest,6.6,No
2016/02/26,11:00,0.459,0.265,0.481,0.429,0.397,0.217,0.191,north-northwest,6.0,No
2016/02/26,11:10,0.462,0.266,0.479,0.432,0.397,0.217,0.190,northwest,4.9,No
2016/02/26,11:20,0.460,0.264,0.476,0.427,0.399,0.217,0.189,west-northwest,7.0,No
2016/02/26,11:30,0.458,0.266,0.480,0.432,0.397,0.217,0.189,west-northwest,4.5,No
2016/02/26,11:40,0.462,0.264,0.474,0.427,0.397,0.218,0.190,northwest,5.5,No
2016/02/26,11:50,0.459,0.265,0.479,0.431,0.400,0.217,0.189,northwest,5.0,No
2016/02/26,12:00,0.463,0.267,0.478,0.427,0.400,0.218,0.191,northwest,4.7,No
2016/02/26,12:10,0.459,0.265,0.480,0.432,0.398,0.216,0.189,north-northwest,4.3,No
2016/02/26,12:20,0.461,0.267,0.479,0.427,0.397,0.217,0.190,north,5.3,No
2016/02/26,12:30,0.460,0.264,0.479,0.432,0.398,0.216,0.189,northwest,4.7,No
2016/02/26,12:40,0.462,0.266,0.478,0.427,0.396,0.217,0.189,north-northwest,5.6,No
2016/02/26,12:50,0.462,0.265,0.481,0.433,0.401,0.217,0.190,northwest,5.8,No
2016/02/26,13:00,0.460,0.265,0.479,0.428,0.396,0.218,0.190,west-northwest,5.3,No
2016/02/26,13:10,0.462,0.267,0.479,0.432,0.400,0.219,0.190,west-northwest,3.9,No
2016/02/26,13:20,0.459,0.266,0.479,0.428,0.396,0.217,0.189,west,2.8,No
2016/02/26,13:30,0.461,0.265,0.478,0.432,0.400,0.218,0.191,west-northwest,3.0,No
2016/02/26,13:40,0.463,0.265,0.477,0.431,0.397,0.217,0.190,northwest,2.8,No
2016/02/26,13:50,0.459,0.266,0.480,0.429,0.399,0.219,0.191,north,3.4,No
2016/02/26,14:00,0.462,0.267,0.477,0.430,0.397,0.218,0.190,northeast,3.3,No
2016/02/26,14:10,0.461,0.265,0.480,0.432,0.402,0.219,0.190,north,5.3,No
2016/02/26,14:20,0.461,0.267,0.480,0.431,0.398,0.218,0.191,north-northeast,8.1,No
2016/02/26,14:30,0.464,0.266,0.481,0.434,0.400,0.217,0.190,north,6.4,No
2016/02/26,14:40,0.462,0.266,0.482,0.432,0.400,0.218,0.190,west-northwest,3.9,No
2016/02/26,14:50,0.463,0.266,0.481,0.434,0.399,0.217,0.192,west-northwest,3.0,No
2016/02/26,15:00,0.463,0.267,0.483,0.432,0.400,0.218,0.190,east-southeast,4.5,No
2016/02/26,15:10,0.460,0.266,0.480,0.432,0.400,0.218,0.190,east-southeast,5.6,No
2016/02/26,15:20,0.464,0.267,0.480,0.433,0.397,0.217,0.191,east-southeast,3.9,No
2016/02/26,15:30,0.463,0.267,0.484,0.433,0.399,0.219,0.191,east-southeast,3.3,No
2016/02/26,15:40,0.461,0.267,0.481,0.434,0.400,0.217,0.191,south-southeast,4.7,No
2016/02/26,15:50,0.463,0.267,0.481,0.434,0.400,0.217,0.190,southeast,4.5,No
2016/02/26,16:00,0.461,0.267,0.483,0.433,0.399,0.218,0.191,southeast,3.4,No
2016/02/26,16:10,0.462,0.267,0.480,0.432,0.399,0.218,0.192,southeast,1.5,No
2016/02/26,16:20,0.464,0.267,0.480,0.435,0.397,0.216,0.191,east-southeast,0.8,No
2016/02/26,16:30,0.461,0.268,0.480,0.433,0.399,0.217,0.191,southeast,0.5,No
2016/02/26,16:40,0.460,0.267,0.480,0.431,0.399,0.219,0.190,south-southeast,1.0,No
2016/02/26,16:50,0.463,0.267,0.481,0.433,0.397,0.218,0.191,south-southeast,2.2,No
2016/02/26,17:00,0.461,0.267,0.482,0.434,0.397,0.218,0.191,south-southeast,1.3,No
2016/02/26,17:10,0.463,0.267,0.480,0.432,0.400,0.218,0.191,south,1.3,No
2016/02/26,17:20,0.461,0.266,0.481,0.433,0.399,0.218,0.191,south-southeast,0.6,No
2016/02/26,17:30,0.461,0.267,0.481,0.433,0.397,0.217,0.191,south-southwest,2.0,No
2016/02/26,17:40,0.460,0.266,0.479,0.430,0.400,0.219,0.191,south-southwest,1.5,No
2016/02/26,17:50,0.464,0.265,0.481,0.432,0.398,0.218,0.191,southwest,1.7,No
2016/02/26,18:00,0.460,0.267,0.480,0.432,0.397,0.218,0.190,southwest,1.8,No
2016/02/26,18:10,0.462,0.267,0.479,0.432,0.398,0.219,0.191,southwest,1.7,No
2016/02/26,18:20,0.463,0.266,0.482,0.432,0.398,0.218,0.191,south-southwest,2.2,No
2016/02/26,18:30,0.463,0.266,0.483,0.433,0.398,0.217,0.192,south-southwest,3.5,No
2016/02/26,18:40,0.462,0.266,0.481,0.433,0.396,0.218,0.191,south-southwest,2.9,No
2016/02/26,18:50,0.463,0.266,0.480,0.432,0.399,0.217,0.190,south-southwest,2.7,No
2016/02/26,19:00,0.461,0.266,0.483,0.434,0.399,0.220,0.191,south-southwest,2.9,No
2016/02/26,19:10,0.463,0.266,0.481,0.434,0.396,0.218,0.191,south,3.7,No
2016/02/26,19:20,0.463,0.267,0.479,0.432,0.398,0.217,0.191,south-southwest,2.8,No
2016/02/26,19:30,0.463,0.266,0.484,0.431,0.400,0.218,0.190,southwest,3.3,No
2016/02/26,19:40,0.461,0.267,0.482,0.432,0.398,0.218,0.192,south-southwest,4.7,No
2016/02/26,19:50,0.461,0.267,0.481,0.432,0.398,0.219,0.191,southwest,3.9,No
2016/02/26,20:00,0.463,0.266,0.481,0.432,0.398,0.218,0.191,south-southwest,4.2,No
2016/02/26,20:10,0.461,0.268,0.483,0.432,0.399,0.219,0.191,south-southwest,4.4,No
2016/02/26,20:20,0.461,0.266,0.481,0.434,0.399,0.217,0.191,south-southwest,6.0,No
2016/02/26,20:30,0.460,0.267,0.481,0.434,0.398,0.218,0.190,south-southwest,6.5,No
2016/02/26,20:40,0.461,0.267,0.483,0.430,0.397,0.219,0.191,south-southwest,6.3,No
2016/02/26,20:50,0.460,0.266,0.482,0.433,0.399,0.219,0.191,southwest,6.2,No
2016/02/26,21:00,0.461,0.267,0.482,0.434,0.400,0.219,0.191,southwest,5.9,No
2016/02/26,21:10,0.460,0.267,0.481,0.433,0.397,0.218,0.191,southwest,5.3,No
2016/02/26,21:20,0.461,0.268,0.483,0.432,0.398,0.217,0.190,southwest,5.2,No
2016/02/26,21:30,0.462,0.266,0.481,0.430,0.397,0.218,0.190,southwest,4.7,No
2016/02/26,21:40,0.461,0.268,0.482,0.432,0.400,0.218,0.190,southwest,4.6,No
2016/02/26,21:50,0.460,0.267,0.482,0.433,0.399,0.219,0.190,southwest,4.8,No
2016/02/26,22:00,0.460,0.268,0.483,0.433,0.399,0.219,0.191,west-southwest,4.1,No
2016/02/26,22:10,0.462,0.266,0.484,0.432,0.398,0.219,0.190,west-southwest,3.8,No
2016/02/26,22:20,0.462,0.266,0.483,0.433,0.399,0.219,0.191,west,4.1,No
2016/02/26,22:30,0.461,0.268,0.480,0.432,0.398,0.218,0.191,west-southwest,4.7,No
2016/02/26,22:40,0.462,0.267,0.481,0.433,0.397,0.218,0.191,west-southwest,6.0,No
2016/02/26,22:50,0.460,0.267,0.485,0.432,0.398,0.219,0.190,west-southwest,6.4,No
2016/02/26,23:00,0.461,0.267,0.482,0.433,0.397,0.218,0.191,west-southwest,7.3,No
2016/02/26,23:10,0.461,0.266,0.482,0.430,0.398,0.218,0.190,west-southwest,5.7,No
2016/02/26,23:20,0.461,0.267,0.483,0.433,0.399,0.218,0.192,west-southwest,5.2,No
2016/02/26,23:30,0.461,0.267,0.483,0.432,0.399,0.219,0.191,southwest,5.2,No
2016/02/26,23:40,0.461,0.266,0.484,0.431,0.398,0.218,0.191,west-southwest,5.4,No
2016/02/26,23:50,0.462,0.267,0.480,0.432,0.397,0.219,0.191,southwest,4.6,No
